Meteo Giornale » Osservazioni meteo Italia » Bari-Palese Macchie

ore: 07:50 - Osservazioni Meteo Bari-Palese Macchie
Lat. 41° 8' N Lon. 16° 47' E Alt. 34 metri s.l.m.

sereno Europe/Rome

14 °C

Sereno

Temp. 24 Ore

10 °C

19 °C

Nord

3.7 Km/h

Dew point 12 °C

Umidità 87 %

Visibilità  8 Km

Il sole sorge alle ore 05:56

Il sole tramonta alle ore 19:45

Data e Ora Cielo e Fenomeni T °C DP °C Um. % Pres. hPa Vis. km Vento km/h
Oggi h: 07:50 sereno Sereno 14 12 87 1017 8 N 3.7
Oggi h: 07:20 sereno Sereno 12 11 93 1017 8 N 3.7
Oggi h: 06:50 sereno Sereno 10 9 93 1017 8 N 5.5
Oggi h: 06:20 sereno Sereno 10 8 87 1017 6 N 5.5
Oggi h: 05:50 sereno Sereno 11 10 93 1017 8 N 5.5
Oggi h: 05:20 sereno Sereno 12 9 81 1017 8 N 3.7
Oggi h: 04:50 sereno Sereno 10 9 93 1017 10 N 3.7
Oggi h: 04:20 sereno Sereno 11 9 87 1017 10 N 5.5
Oggi h: 03:50 sereno Sereno 12 10 87 1017 10 N 5.5
Oggi h: 03:20 sereno Sereno 12 10 87 1017 10 N 5.5
Oggi h: 02:50 sereno Sereno 13 10 81 1017 10 N 5.5
Oggi h: 02:20 sereno Sereno 12 10 87 1018 10 N 5.5
Oggi h: 01:50 sereno Sereno 13 10 81 1018 10 N 3.7
Oggi h: 01:20 sereno Sereno 13 10 81 1018 10 N 3.7
Oggi h: 00:50 sereno Sereno 13 10 81 1018 10 S/SO 9.3
Oggi h: 00:20 sereno Sereno 13 10 81 1018 10 S/SO 9.3
Ieri h: 23:50 sereno Sereno 14 10 76 1018 10 S 11.1
Ieri h: 23:20 sereno Sereno 14 10 76 1019 10 S 11.1
Ieri h: 22:50 sereno Sereno 14 10 76 1019 10 S 11.1
Ieri h: 22:20 sereno Sereno 14 10 76 1019 10 S/SO 9.3
Ieri h: 21:50 sereno Sereno 14 9 71 1019 10 S/SO 9.3
Ieri h: 21:20 sereno Sereno 15 8 62 1019 10 S 7.4
Ieri h: 20:50 sereno Sereno 15 9 67 1018 10 S 7.4
Ieri h: 20:20 sereno Sereno 16 8 58 1018 10 S 9.3
Ieri h: 19:50 sereno Sereno 17 8 55 1018 10 S 9.3
Ieri h: 19:20 sereno Sereno 19 10 55 1018 10 E/SE 14.8
Ieri h: 18:50 sereno Sereno 19 10 55 1018 10 E/SE 14.8
Ieri h: 17:50 sereno Sereno 18 12 67 1018 10 E/SE 22.2
Ieri h: 17:20 sereno Sereno 18 12 67 1019 10 E 24
Ieri h: 16:50 sereno Sereno 19 11 59 1019 10 E 25.9
Ieri h: 16:20 sereno Sereno 19 11 59 1019 10 E 24
Ieri h: 15:50 sereno Sereno 18 11 63 1019 10 E 24
Ieri h: 15:20 sereno Sereno 19 10 55 1019 10 E 24
Ieri h: 14:50 sereno Sereno 17 10 63 1020 10 E 25.9
Ieri h: 13:50 sereno Sereno 18 10 59 1020 10 E 24
Ieri h: 13:20 sereno Sereno 18 9 55 1020 10 E 24
Ieri h: 12:50 sereno Sereno 18 8 51 1020 10 E 24
Ieri h: 12:20 sereno Sereno 18 9 55 1021 10 E 22.2
Ieri h: 11:50 sereno Sereno 18 9 55 1021 10 E 22.2
Ieri h: 11:20 sereno Sereno 17 10 63 1021 10 E 18.5
Ieri h: 10:50 sereno Sereno 17 10 63 1021 10 E 13
Ieri h: 10:20 sereno Sereno 17 11 67 1021 10 N 9.3
Ieri h: 09:50 sereno Sereno 16 10 67 1021 10 N 5.5
Ieri h: 09:20 sereno Sereno 16 10 67 1021 10 N 5.5
Ieri h: 08:50 sereno Sereno 15 10 72 1021 10 N 3.7